TimeCDT,TemperatureF,Dew PointF,Humidity,Sea Level PressureIn,VisibilityMPH,Wind Direction,Wind SpeedMPH,Gust SpeedMPH,PrecipitationIn,Events,Conditions,WindDirDegrees,DateUTC
12:53 AM,82.9,69.1,63,29.92,10.0,SE,5.8,-,N/A,,Clear,140,2013-09-03 05:53:00
1:53 AM,81.0,71.1,72,29.92,10.0,SSE,3.5,-,N/A,,Clear,150,2013-09-03 06:53:00
2:53 AM,78.1,70.0,76,29.91,10.0,Calm,Calm,-,N/A,,Clear,0,2013-09-03 07:53:00
3:53 AM,77.0,70.0,79,29.91,10.0,NNE,4.6,-,N/A,,Clear,20,2013-09-03 08:53:00
4:53 AM,75.9,69.1,79,29.93,10.0,North,3.5,-,N/A,,Clear,10,2013-09-03 09:53:00
5:53 AM,77.0,69.1,76,29.93,10.0,NE,3.5,-,N/A,,Clear,40,2013-09-03 10:53:00
6:53 AM,75.0,69.1,82,29.94,10.0,Calm,Calm,-,N/A,,Clear,0,2013-09-03 11:53:00
7:53 AM,75.9,70.0,82,29.96,8.0,Calm,Calm,-,N/A,,Clear,0,2013-09-03 12:53:00
8:53 AM,82.9,71.1,67,29.96,10.0,NNE,3.5,-,N/A,,Clear,20,2013-09-03 13:53:00
9:53 AM,88.0,71.1,57,29.97,10.0,Variable,3.5,-,N/A,,Clear,0,2013-09-03 14:53:00
10:53 AM,91.9,70.0,48,29.98,10.0,Calm,Calm,-,N/A,,Clear,0,2013-09-03 15:53:00
11:53 AM,97.0,66.0,36,29.97,10.0,Variable,5.8,-,N/A,,Clear,0,2013-09-03 16:53:00
12:53 PM,98.1,64.0,33,29.95,10.0,Variable,6.9,-,N/A,,Scattered Clouds,0,2013-09-03 17:53:00
1:53 PM,99.0,64.0,32,29.94,10.0,North,6.9,-,N/A,,Mostly Cloudy,350,2013-09-03 18:53:00
2:53 PM,100.9,64.0,30,29.90,10.0,ENE,6.9,-,N/A,,Scattered Clouds,60,2013-09-03 19:53:00
3:53 PM,102.0,63.0,28,29.87,10.0,North,10.4,-,N/A,,Mostly Cloudy,10,2013-09-03 20:53:00
4:53 PM,102.0,62.1,27,29.85,10.0,North,9.2,-,N/A,,Clear,350,2013-09-03 21:53:00
5:53 PM,102.0,61.0,26,29.85,10.0,NE,5.8,-,N/A,,Clear,40,2013-09-03 22:53:00
6:53 PM,99.0,59.0,26,29.86,10.0,North,4.6,-,N/A,,Clear,350,2013-09-03 23:53:00
7:53 PM,93.0,60.1,33,29.88,10.0,North,4.6,-,N/A,,Clear,360,2013-09-04 00:53:00
8:53 PM,90.0,66.0,45,29.90,10.0,SSE,9.2,18.4,N/A,,Partly Cloudy,150,2013-09-04 01:53:00
9:53 PM,84.9,66.9,55,29.92,10.0,South,4.6,-,N/A,,Clear,190,2013-09-04 02:53:00
10:53 PM,82.0,68.0,62,29.93,10.0,South,5.8,-,N/A,,Clear,170,2013-09-04 03:53:00
11:53 PM,81.0,68.0,65,29.94,10.0,SSE,4.6,-,N/A,,Clear,160,2013-09-04 04:53:00